Location: Kitchener-Waterloo
(43.4500°N, 80.5000°W)
Time: 21:35:45
(UTC-05:00)

Daily predictions for brighter satellites

Satellite Brightness Start Highest point End
(mag) Time Altitude Azimuth Time Altitude Azimuth Time Altitude Azimuth
Cosmos 1461 3.1 18:25:33 10° NNW 18:29:26 47° NE 18:33:23 10° SE
BREEZE-M DEB (TANK) 4.5 18:24:59 10° WSW 18:29:48 78° NNW 18:52:23 10° ENE
COSMOS 2428 4.3 18:27:11 10° N 18:30:38 16° NE 18:34:04 10° E
CENTAUR R/B 3.7 18:24:43 10° NW 18:32:29 65° WSW 18:40:44 10° SSE
deb Kosmos-1763 4.5 18:29:15 10° S 18:32:52 44° ESE 18:36:30 10° NNE
Cosmos 44 3.1 18:28:43 10° NW 18:33:11 85° WSW 18:37:30 10° SSE
Meteor 1-25 Rocket 4.3 18:29:45 10° S 18:35:14 61° E 18:40:50 10° NNE
Cosmos 1346 Rocket 3.7 18:31:23 10° NNW 18:35:14 54° W 18:39:02 10° S
H-2A R/B 4.3 18:37:29 10° ESE 18:39:50 16° ENE 18:42:14 10° NNE
Cosmos 1745 Rocket 4.0 18:34:52 10° S 18:41:12 84° E 18:47:31 10° N
Cosmos 2151 Rocket 3.9 18:39:15 10° SSE 18:43:32 46° E 18:47:52 10° NNE
Cosmos 1812 2.6 18:41:21 10° N 18:45:14 78° E 18:49:05 10° SSE
NOAA 12 4.1 18:44:09 10° SSE 18:49:27 75° ENE 18:54:47 10° N
Okean 1 Rocket 4.3 18:47:08 10° SE 18:50:29 21° E 18:53:51 10° NE
Cosmos 1386 Rocket 4.4 18:45:23 10° S 18:51:28 77° E 18:57:31 10° N
METEOR-M 4.1 18:47:28 10° SSE 18:52:48 78° ENE 18:58:09 10° N
GEOS 3 Rocket 4.1 18:48:53 10° NE 18:53:51 42° ESE 18:58:49 10° S
HJ-1C 4.0 18:54:31 10° SE 18:57:37 36° ENE 19:00:45 10° N
Cosmos 2360 Rocket 2.5 18:52:39 10° NNW 18:58:04 44° ENE 19:03:28 10° SE
Cosmos 2219 Rocket 3.8 18:57:18 10° N 19:00:32 15° NE 19:02:23 13° ENE
Helios 1B rocket 4.2 19:07:50 15° ESE 19:07:50 15° ESE 19:09:07 10° SE
Cosmos 1602 4.0 19:08:30 10° SSE 19:12:12 45° E 19:15:57 10° NNE
Cosmos 1633 2.7 19:09:07 10° S 19:12:40 48° E 19:16:15 10° NNE
FREGAT/IRIS 3.2 19:14:44 10° S 19:17:47 61° W 19:20:51 10° NNW
Cosmos 1025 Rocket 4.0 19:14:10 10° NNE 19:17:50 25° ENE 19:18:32 24° E
ALOS 2.2 19:15:46 10° SSE 19:20:26 77° ENE 19:25:07 10° N
Cosmos 1833 4.2 19:16:13 10° S 19:21:49 61° ESE 19:27:24 10° NNE
Cosmos 1536 Rocket 3.8 19:20:13 10° NNW 19:24:41 72° W 19:29:08 10° S
Cosmos 2333 Rocket 3.6 19:22:05 10° N 19:26:12 20° NE 19:27:00 19° ENE
Cosmos 1818 3.6 19:23:41 10° SW 19:29:09 85° NW 19:34:39 10° NNE
SL-16 R/B 3.5 19:26:35 10° NW 19:31:54 42° WSW 19:37:11 10° S
SJ-6B 3.9 19:30:10 10° S 19:34:04 46° W 19:37:53 10° NNW
Cosmos 1741 Rocket 4.4 19:29:32 10° S 19:34:21 39° ESE 19:37:55 17° NE
FengYun 1-2 T 4.2 19:30:39 10° SSE 19:36:08 83° WSW 19:41:40 10° NNW
TSX-5 3.3 19:34:20 10° SSW 19:37:30 76° WNW 19:39:06 27° NNE
Cosmos 1023 Rocket 4.3 19:32:51 10° S 19:37:53 70° ESE 19:43:01 10° NNE
Resurs 01 Rocket 1.6 19:35:29 10° SSE 19:39:53 86° WSW 19:44:19 10° NNW
Cosmos 1340 3.3 19:37:04 10° NNW 19:40:48 57° W 19:44:30 10° S
Meteor 1-19 Rocket 4.2 19:36:18 10° N 19:42:00 88° W 19:47:45 10° S
Cosmos 1238 Rocket 2.6 19:39:14 10° NNW 19:42:15 59° W 19:45:08 10° S
Gbstr 26 Del rocket 3.2 19:40:44 10° SSW 19:43:57 38° SSE 19:43:57 38° SSE
Cosmos 676 Rocket 4.4 19:39:27 10° SSW 19:44:35 64° WNW 19:49:47 10° NNE
DELTA 2 R/B (1) 4.2 19:40:46 10° W 19:46:07 47° SSW 19:48:39 28° SE
Cosmos 1570 Rocket 4.0 19:41:14 10° NNW 19:46:25 61° ENE 19:48:44 32° SE
Cosmos 2181 Rocket 4.2 19:41:20 10° NNW 19:47:33 75° W 19:53:50 10° S
Cosmos 2322 Rocket 4.2 19:44:54 10° NW 19:49:39 29° WSW 19:54:24 10° SSW
Meteor 1-5 Rocket 4.5 19:44:12 10° SSE 19:49:55 50° E 19:55:37 10° NNE
Tiangong 2 3.1 19:52:00 10° W 19:54:24 21° SSW 19:54:33 21° SSW
Cosmos 1300 Rocket 4.2 19:52:48 10° SSW 19:57:07 58° W 20:01:32 10° N
Genesis I 3.4 19:53:25 10° NNW 19:56:53 54° NNE 19:56:53 54° NNE
Cosmos 1536 2.7 19:55:26 10° S 19:59:26 87° W 20:03:26 10° N
Resurs 1-3 4.1 19:58:18 10° S 20:02:37 59° W 20:06:58 10° NNW
Cosmos 2322 4.0 19:57:02 10° NNW 20:02:43 68° WSW 20:07:31 15° S
CZ-2D R/B 3.5 20:03:05 35° S 20:04:31 65° W 20:08:19 10° NNW
Cosmos 2074 Rocket 3.9 20:01:19 10° S 20:07:33 80° E 20:13:51 10° N
Cosmos 1140 Rocket 3.8 20:02:29 10° SSW 20:07:34 65° WNW 20:12:43 10° NNE
Cosmos 2184 Rocket 3.9 20:01:57 10° S 20:08:16 78° E 20:14:33 10° N
Meteor 1-23 Rocket 4.2 20:02:32 10° N 20:08:23 90° ENE 20:12:58 17° S
Cosmos 2208 Rocket 4.0 20:05:14 10° NNW 20:10:43 89° ENE 20:12:31 44° SSE
H-2A R/B 4.2 20:10:26 10° SSW 20:13:51 36° W 20:17:19 10° NNW
COSMOS 2428 2.6 20:10:06 10° NNW 20:15:49 84° ENE 20:16:58 59° SE
Meteor 2-4 Rocket 4.0 20:10:35 10° NNW 20:16:06 64° W 20:21:27 10° S
Cosmos 2237 4.3 20:10:36 10° NNW 20:16:22 78° WSW 20:18:33 39° SSE
Cosmos 2333 4.1 20:13:36 10° NNW 20:19:21 79° ENE 20:20:01 68° SE
Cosmos 614 Rocket 4.2 20:14:53 10° SSW 20:19:55 66° WNW 20:25:00 10° NNE
Helios 1A 3.6 20:21:30 46° SW 20:22:15 54° W 20:26:21 10° NNW
Cosmos 2237 Rocket 3.3 20:20:08 10° N 20:23:53 31° NNE 20:23:53 31° NNE
Cosmos 1850 Rocket 4.2 20:21:05 10° SSW 20:26:22 71° WNW 20:31:03 14° NNE
Nadezhda 3 Rocket 4.1 20:21:58 10° N 20:27:16 56° NE 20:27:16 56° NE
USA 229 DEB 3.7 20:23:55 10° NW 20:31:05 79° NE 20:32:15 64° ESE
USA 229 3.7 20:24:02 10° NW 20:31:11 78° NE 20:32:19 64° ESE
Envisat 3.2 20:33:04 61° N 20:33:04 61° N 20:37:16 10° NNW
Cosmos 2285 Rocket 3.9 20:27:07 10° NNW 20:33:37 90° E 20:34:37 66° SSE
Cosmos 2219 3.3 20:34:25 10° SSW 20:40:10 76° WNW 20:41:01 63° N
Cosmos 2360 Rocket 4.0 20:37:04 10° NW 20:41:50 28° WSW 20:46:34 10° SSW
ERS-1 Rocket 4.4 20:45:34 28° N 20:45:34 28° N 20:47:59 10° N
NOSS 3-1 (A) 4.5 20:36:35 10° NNW 20:43:24 42° NE 20:43:24 42° NE
Cosmos 2219 Rocket 2.6 20:39:46 10° NNW 20:44:09 55° NNW 20:44:09 55° NNW
ATLAS 2AS CENTAUR R/B 4.4 20:42:20 10° NNW 20:48:34 23° NNE 20:49:25 23° NNE
SL-16 R/B 4.1 20:52:19 10° N 20:54:14 19° N 20:54:14 19° N
NOSS 3-1 (C) 4.1 20:57:08 10° NNW 21:03:46 60° NNE 21:03:46 60° NNE
Cosmos 2333 Rocket 3.3 21:05:23 10° NNW 21:09:02 41° NNW 21:09:02 41° NNW
